Погода в Элите

Россия / Красноярский край     56°05′07″N   92°34′22″E
темп.,
°C
ветер,
м/с
пор.,
м/с
влажн.,
%
обл.,
%
осадки,
мм/ч
давл.,
гПа
погр.,
м
22 января, пт
пт2201:00−17ююз2296100 0.1 101731
04:00−17ю1296100 0.0 101422
07:00−16ююв1196100 0.0 101122
10:00−14в1195100 0.0 100843
13:00−11вюв1195100 1.0 1005121
16:00−9з0296100 0.8 1007211
19:00−11зюз31091100 0.8 1010413
22:00−14з31191100 0.0 1013585
23 января, сб
сб2301:00−18зюз3792100 0.1 1017284
04:00−20зюз2595100 0.0 1021159
07:00−22юз2594100 0.0 1025141
10:00−22юз2692100 0.0 1027245
13:00−18юз258999 0.0 1028377
16:00−16юз249498 0.1 1029422
19:00−18юз229799 0.2 103142
22:00−19зюз1196100 0.1 103222
24 января, вс
вс2401:00−20з019899 0.1 103320
04:00−22ю119890 0.0 103320
07:00−21ю129793 0.1 103322
10:00−20ю229595 0.0 103459
13:00−17ююз249197 0.0 1032287
16:00−17ю1293100 0.0 103221
19:00−20ю229396 0.0 103220
22:00−19ю2292100 0.0 103228
25 января, пн
пн2501:00−19зюз2294100 0.0 103241
04:00−20з31094100 0.1 1034543
07:00−24з3892100 0.1 1037384
10:00−26зюз2793100 0.0 1041426
13:00−26з3887100 0.0 1042591
16:00−29з2492100 0.0 1044342
19:00−34з229498 0.0 104621
22:00−36з129370 0.0 104719
26 января, вт
вт2601:00−37з119464 0.0 104719
04:00−38з019588 0.0 104719
07:00−38зсз009580 0.0 104819
10:00−37в009697 0.0 104822
13:00−32всв119197 0.0 1047244
16:00−33всв1195100 0.0 1048163
19:00−35всв1198100 0.0 104919
22:00−35св1199100 0.1 104936